QPF
0.01 0.02 0.03 0.02 0.01 0.01 0.02 0.01 0.02 0.01 0.01 0.03 0.04 0.05 0.05 0.07 0.07 0.06 0.06 0.03 0.03 0.03 0.02 0.02 0.02 0.01 0.00 0.01 0.01 0.02 0.03 0.04 0.03 0.02 0.01 0.01 0.01 0.01 0.01 0.00 0.00 0.00 0.00 0.00
0.01 0.02 0.03 0.02 0.01 0.01 0.02 0.02 0.02 0.01 0.01 0.02 0.03 0.04 0.04 0.06 0.06 0.05 0.06 0.04 0.03 0.02 0.03 0.02 0.02 0.01 0.01 0.01 0.01 0.02 0.03 0.03 0.03 0.03 0.03 0.02 0.01 0.01 0.01 0.00 0.00 0.00 0.00 0.00
0.02 0.02 0.03 0.03 0.02 0.02 0.02 0.02 0.02 0.01 0.01 0.02 0.02 0.02 0.02 0.03 0.04 0.03 0.04 0.04 0.03 0.02 0.02 0.02 0.02 0.02 0.02 0.01 0.01 0.02 0.02 0.03 0.02 0.02 0.03 0.03 0.02 0.01 0.01 0.00 0.00 0.00 0.00 0.00
0.03 0.03 0.03 0.03 0.02 0.02 0.02 0.01 0.02 0.02 0.02 0.02 0.02 0.01 0.01 0.01 0.01 0.02 0.03 0.04 0.02 0.01 0.01 0.02 0.02 0.03 0.03 0.01 0.01 0.02 0.02 0.01 0.02 0.02 0.02 0.03 0.03 0.02 0.01 0.00 0.00 0.00 0.00 0.00
0.01 0.02 0.02 0.02 0.02 0.03 0.03 0.02 0.02 0.02 0.02 0.02 0.01 0.01 0.01 0.01 0.01 0.01 0.02 0.04 0.01 0.01 0.01 0.01 0.02 0.03 0.03 0.01 0.01 0.01 0.01 0.01 0.01 0.01 0.02 0.03 0.04 0.03 0.02 0.01 0.00 0.00 0.00 0.00
0.00 0.01 0.01 0.02 0.02 0.03 0.03 0.02 0.02 0.02 0.03 0.01 0.00 0.00 0.00 0.01 0.01 0.00 0.01 0.03 0.01 0.01 0.01 0.01 0.02 0.03 0.03 0.01 0.01 0.01 0.01 0.01 0.01 0.01 0.02 0.04 0.04 0.03 0.02 0.01 0.00 0.00 0.00 0.00
0.01 0.01 0.01 0.02 0.03 0.02 0.02 0.02 0.03 0.03 0.02 0.01 0.00 0.00 0.00 0.01 0.01 0.01 0.01 0.01 0.01 0.01 0.01 0.01 0.01 0.02 0.02 0.01 0.01 0.01 0.01 0.01 0.01 0.01 0.02 0.03 0.04 0.03 0.02 0.01 0.00 0.00 0.00 0.00
0.00 0.01 0.01 0.02 0.03 0.03 0.02 0.02 0.02 0.02 0.02 0.01 0.00 0.01 0.01 0.00 0.01 0.01 0.01 0.01 0.00 0.01 0.01 0.01 0.01 0.01 0.01 0.01 0.01 0.01 0.01 0.01 0.01 0.01 0.02 0.02 0.03 0.04 0.03 0.01 0.00 0.00 0.00 0.00
0.00 0.01 0.00 0.01 0.02 0.02 0.02 0.02 0.01 0.01 0.01 0.01 0.01 0.00 0.00 0.00 0.01 0.00 0.01 0.01 0.01 0.01 0.01 0.01 0.01 0.01 0.01 0.01 0.01 0.00 0.00 0.01 0.02 0.02 0.02 0.02 0.02 0.02 0.02 0.01 0.00 0.00 0.00 0.00
0.01 0.01 0.01 0.01 0.01 0.01 0.02 0.03 0.02 0.01 0.01 0.01 0.00 0.00 0.01 0.01 0.00 0.00 0.01 0.01 0.01 0.01 0.01 0.01 0.02 0.02 0.01 0.01 0.01 0.01 0.01 0.01 0.01 0.01 0.02 0.02 0.02 0.02 0.02 0.01 0.00 0.00 0.00 0.00
0.01 0.01 0.02 0.02 0.01 0.01 0.01 0.01 0.01 0.02 0.01 0.01 0.00 0.00 0.01 0.01 0.00 0.00 0.01 0.01 0.01 0.01 0.01 0.01 0.02 0.02 0.02 0.02 0.02 0.01 0.01 0.01 0.01 0.01 0.02 0.01 0.01 0.02 0.02 0.02 0.01 0.01 0.01 0.01
0.01 0.01 0.01 0.02 0.01 0.01 0.00 0.01 0.01 0.01 0.01 0.00 0.00 0.00 0.00 0.00 0.00 0.00 0.01 0.01 0.01 0.01 0.01 0.02 0.03 0.03 0.02 0.02 0.02 0.01 0.01 0.01 0.01 0.01 0.01 0.01 0.01 0.01 0.02 0.02 0.02 0.02 0.01 0.01
0.01 0.01 0.01 0.01 0.01 0.01 0.00 0.00 0.01 0.01 0.01 0.00 0.00 0.00 0.00 0.00 0.00 0.00 0.00 0.01 0.01 0.01 0.01 0.02 0.03 0.03 0.02 0.03 0.02 0.01 0.01 0.01 0.01 0.01 0.01 0.01 0.01 0.01 0.01 0.02 0.02 0.02 0.02 0.01
0.02 0.01 0.01 0.01 0.01 0.01 0.00 0.00 0.00 0.00 0.00 0.00 0.00 0.00 0.00 0.00 0.00 0.00 0.00 0.01 0.01 0.00 0.00 0.01 0.02 0.02 0.02 0.02 0.02 0.02 0.01 0.01 0.02 0.02 0.02 0.01 0.01 0.00 0.01 0.02 0.03 0.03 0.01 0.01
0.02 0.01 0.01 0.01 0.00 0.01 0.00 0.00 0.00 0.00 0.00 0.00 0.00 0.00 0.00 0.00 0.00 0.00 0.01 0.01 0.01 0.01 0.01 0.01 0.01 0.02 0.02 0.02 0.02 0.02 0.02 0.02 0.02 0.02 0.02 0.02 0.01 0.01 0.01 0.01 0.01 0.02 0.02 0.01
0.02 0.01 0.01 0.00 0.00 0.00 0.00 0.00 0.00 0.00 0.00 0.00 0.00 0.00 0.00 0.00 0.00 0.00 0.00 0.00 0.00 0.01 0.01 0.01 0.02 0.02 0.03 0.02 0.02 0.01 0.02 0.03 0.02 0.02 0.02 0.01 0.01 0.01 0.01 0.01 0.01 0.01 0.01 0.01
0.03 0.02 0.01 0.01 0.01 0.00 0.00 0.00 0.00 0.00 0.00 0.00 0.00 0.00 0.00 0.00 0.00 0.00 0.00 0.00 0.01 0.01 0.01 0.01 0.03 0.02 0.02 0.02 0.02 0.02 0.02 0.02 0.02 0.02 0.01 0.01 0.00 0.00 0.00 0.01 0.01 0.01 0.00 0.00
0.02 0.03 0.02 0.02 0.01 0.00 0.00 0.00 0.00 0.00 0.00 0.01 0.01 0.00 0.00 0.00 0.00 0.00 0.00 0.01 0.01 0.01 0.01 0.01 0.01 0.02 0.02 0.03 0.04 0.04 0.04 0.03 0.02 0.03 0.03 0.01 0.00 0.00 0.00 0.00 0.00 0.00 0.00 0.00
0.02 0.02 0.02 0.01 0.01 0.00 0.00 0.00 0.00 0.00 0.01 0.01 0.01 0.01 0.00 0.00 0.00 0.00 0.01 0.01 0.01 0.01 0.01 0.01 0.01 0.01 0.01 0.02 0.03 0.04 0.03 0.03 0.03 0.03 0.03 0.01 0.01 0.01 0.01 0.01 0.01 0.00 0.00 0.00
0.01 0.01 0.02 0.01 0.01 0.00 0.00 0.00 0.00 0.00 0.01 0.01 0.01 0.01 0.00 0.00 0.00 0.00 0.01 0.01 0.00 0.01 0.01 0.01 0.01 0.01 0.01 0.02 0.03 0.03 0.03 0.02 0.01 0.02 0.03 0.01 0.01 0.01 0.01 0.01 0.01 0.01 0.01 0.00
0.00 0.01 0.01 0.01 0.00 0.00 0.00 0.00 0.00 0.01 0.01 0.01 0.01 0.01 0.01 0.01 0.00 0.00 0.00 0.01 0.01 0.01 0.01 0.00 0.01 0.00 0.01 0.02 0.02 0.03 0.02 0.01 0.01 0.02 0.03 0.02 0.01 0.02 0.01 0.01 0.01 0.01 0.01 0.01
0.00 0.00 0.00 0.00 0.00 0.00 0.00 0.00 0.01 0.01 0.00 0.01 0.01 0.01 0.00 0.00 0.00 0.00 0.00 0.01 0.01 0.01 0.01 0.01 0.01 0.01 0.02 0.02 0.02 0.02 0.02 0.02 0.02 0.02 0.02 0.02 0.01 0.01 0.01 0.00 0.01 0.01 0.01 0.00
0.00 0.01 0.01 0.01 0.01 0.00 0.00 0.00 0.01 0.00 0.00 0.01 0.01 0.01 0.01 0.00 0.00 0.00 0.01 0.01 0.01 0.01 0.01 0.01 0.01 0.02 0.02 0.02 0.03 0.02 0.03 0.04 0.03 0.02 0.02 0.02 0.01 0.01 0.01 0.00 0.00 0.00 0.00 0.00
0.00 0.00 0.01 0.01 0.01 0.01 0.01 0.00 0.00 0.00 0.00 0.01 0.01 0.01 0.01 0.01 0.01 0.01 0.01 0.01 0.01 0.01 0.01 0.02 0.02 0.03 0.02 0.02 0.03 0.03 0.03 0.04 0.03 0.02 0.02 0.02 0.02 0.01 0.01 0.01 0.01 0.01 0.01 0.00
0.00 0.01 0.01 0.01 0.02 0.02 0.01 0.00 0.00 0.01 0.00 0.01 0.01 0.01 0.01 0.01 0.01 0.01 0.01 0.02 0.02 0.01 0.01 0.01 0.02 0.03 0.03 0.02 0.02 0.03 0.03 0.03 0.03 0.02 0.02 0.02 0.02 0.01 0.01 0.01 0.01 0.01 0.01 0.01
0.01 0.01 0.01 0.01 0.01 0.01 0.01 0.01 0.01 0.01 0.01 0.01 0.01 0.01 0.01 0.01 0.01 0.02 0.02 0.01 0.01 0.01 0.01 0.01 0.01 0.02 0.03 0.03 0.03 0.03 0.04 0.03 0.03 0.02 0.02 0.02 0.02 0.02 0.01 0.01 0.01 0.01 0.00 0.00
MSLP
1013.76 1014.45 1015.03 1015.48 1015.82 1016.10 1016.34 1016.58 1016.84 1017.10 1017.34 1017.52 1017.62 1017.60 1017.47 1017.23 1016.93 1016.61 1016.32 1016.10 1015.97 1015.93 1015.99 1016.11 1016.26 1016.44 1016.61 1016.79 1016.96 1017.14 1017.35 1017.57 1017.81 1018.04 1018.26 1018.44 1018.56 1018.60 1018.56 1018.46 1018.30 1018.12 1017.94 1017.78
1014.29 1014.89 1015.36 1015.71 1015.98 1016.21 1016.46 1016.74 1017.06 1017.40 1017.70 1017.93 1018.04 1018.00 1017.81 1017.50 1017.11 1016.71 1016.36 1016.10 1015.95 1015.93 1016.01 1016.16 1016.36 1016.56 1016.75 1016.94 1017.11 1017.30 1017.50 1017.74 1017.99 1018.26 1018.50 1018.71 1018.84 1018.89 1018.86 1018.75 1018.58 1018.39 1018.21 1018.05
1014.72 1015.22 1015.61 1015.90 1016.13 1016.36 1016.63 1016.96 1017.35 1017.74 1018.09 1018.34 1018.42 1018.33 1018.06 1017.65 1017.17 1016.69 1016.27 1015.98 1015.83 1015.82 1015.93 1016.13 1016.36 1016.60 1016.82 1017.02 1017.20 1017.39 1017.60 1017.85 1018.12 1018.41 1018.68 1018.91 1019.07 1019.14 1019.11 1019.01 1018.85 1018.67 1018.48 1018.33
1015.06 1015.49 1015.82 1016.07 1016.30 1016.56 1016.88 1017.27 1017.71 1018.14 1018.50 1018.72 1018.75 1018.57 1018.19 1017.67 1017.08 1016.51 1016.04 1015.71 1015.57 1015.59 1015.75 1016.00 1016.28 1016.56 1016.81 1017.03 1017.23 1017.42 1017.64 1017.89 1018.18 1018.48 1018.78 1019.03 1019.22 1019.31 1019.31 1019.23 1019.10 1018.93 1018.77 1018.62
1015.35 1015.73 1016.02 1016.27 1016.52 1016.82 1017.19 1017.64 1018.12 1018.56 1018.90 1019.06 1018.99 1018.69 1018.18 1017.53 1016.83 1016.18 1015.65 1015.31 1015.17 1015.23 1015.45 1015.76 1016.11 1016.44 1016.74 1016.99 1017.20 1017.40 1017.62 1017.88 1018.16 1018.48 1018.78 1019.06 1019.27 1019.40 1019.44 1019.40 1019.30 1019.17 1019.04 1018.93
1015.63 1015.96 1016.23 1016.49 1016.77 1017.12 1017.56 1018.05 1018.54 1018.97 1019.25 1019.32 1019.13 1018.69 1018.03 1017.25 1016.44 1015.70 1015.13 1014.78 1014.67 1014.77 1015.06 1015.44 1015.86 1016.26 1016.61 1016.90 1017.14 1017.35 1017.57 1017.81 1018.10 1018.40 1018.71 1019.00 1019.23 1019.39 1019.48 1019.48 1019.44 1019.37 1019.29 1019.22
1015.90 1016.19 1016.44 1016.71 1017.04 1017.44 1017.92 1018.44 1018.93 1019.32 1019.52 1019.47 1019.15 1018.56 1017.77 1016.86 1015.94 1015.14 1014.53 1014.18 1014.09 1014.25 1014.60 1015.06 1015.56 1016.03 1016.44 1016.77 1017.04 1017.26 1017.48 1017.72 1017.98 1018.27 1018.57 1018.86 1019.11 1019.30 1019.42 1019.49 1019.50 1019.49 1019.47 1019.46
1016.14 1016.38 1016.63 1016.92 1017.28 1017.72 1018.23 1018.76 1019.23 1019.56 1019.67 1019.51 1019.06 1018.34 1017.42 1016.41 1015.41 1014.55 1013.92 1013.57 1013.50 1013.71 1014.11 1014.64 1015.20 1015.74 1016.21 1016.59 1016.90 1017.15 1017.37 1017.59 1017.84 1018.11 1018.39 1018.67 1018.92 1019.13 1019.29 1019.40 1019.47 1019.52 1019.56 1019.61
1016.29 1016.50 1016.75 1017.06 1017.45 1017.92 1018.44 1018.96 1019.40 1019.67 1019.69 1019.43 1018.88 1018.06 1017.06 1015.97 1014.92 1014.03 1013.38 1013.03 1012.98 1013.20 1013.63 1014.20 1014.81 1015.40 1015.93 1016.36 1016.70 1016.98 1017.22 1017.45 1017.69 1017.94 1018.20 1018.46 1018.70 1018.92 1019.09 1019.23 1019.35 1019.44 1019.54 1019.64
1016.31 1016.52 1016.77 1017.10 1017.52 1018.01 1018.53 1019.03 1019.43 1019.64 1019.59 1019.26 1018.64 1017.77 1016.72 1015.61 1014.55 1013.65 1012.99 1012.63 1012.57 1012.78 1013.21 1013.78 1014.41 1015.02 1015.58 1016.06 1016.45 1016.77 1017.04 1017.29 1017.53 1017.77 1018.01 1018.26 1018.48 1018.69 1018.86 1019.02 1019.15 1019.28 1019.41 1019.56
1016.17 1016.39 1016.67 1017.03 1017.47 1017.97 1018.49 1018.96 1019.31 1019.47 1019.39 1019.02 1018.38 1017.51 1016.49 1015.40 1014.37 1013.49 1012.83 1012.45 1012.35 1012.52 1012.89 1013.42 1014.01 1014.62 1015.19 1015.70 1016.14 1016.51 1016.82 1017.11 1017.37 1017.62 1017.86 1018.08 1018.29 1018.48 1018.64 1018.79 1018.92 1019.06 1019.20 1019.37
1015.89 1016.15 1016.48 1016.88 1017.34 1017.84 1018.34 1018.77 1019.09 1019.21 1019.10 1018.74 1018.14 1017.33 1016.38 1015.37 1014.40 1013.56 1012.92 1012.51 1012.35 1012.43 1012.71 1013.14 1013.66 1014.22 1014.77 1015.29 1015.77 1016.19 1016.57 1016.90 1017.21 1017.48 1017.73 1017.95 1018.15 1018.31 1018.46 1018.58 1018.70 1018.83 1018.97 1019.13
1015.52 1015.85 1016.23 1016.67 1017.15 1017.65 1018.11 1018.51 1018.78 1018.88 1018.77 1018.45 1017.93 1017.22 1016.40 1015.51 1014.65 1013.88 1013.26 1012.82 1012.59 1012.55 1012.70 1012.99 1013.38 1013.85 1014.35 1014.86 1015.36 1015.83 1016.27 1016.67 1017.03 1017.35 1017.63 1017.86 1018.05 1018.20 1018.33 1018.43 1018.53 1018.64 1018.76 1018.92
1015.16 1015.57 1016.02 1016.49 1016.97 1017.44 1017.86 1018.21 1018.43 1018.51 1018.42 1018.17 1017.75 1017.18 1016.52 1015.80 1015.08 1014.41 1013.82 1013.36 1013.04 1012.87 1012.86 1012.98 1013.22 1013.56 1013.98 1014.44 1014.94 1015.45 1015.94 1016.41 1016.83 1017.21 1017.52 1017.78 1017.98 1018.13 1018.25 1018.34 1018.43 1018.52 1018.63 1018.77
1014.91 1015.40 1015.90 1016.39 1016.86 1017.28 1017.64 1017.91 1018.08 1018.14 1018.07 1017.89 1017.60 1017.20 1016.73 1016.19 1015.63 1015.08 1014.55 1014.07 1013.67 1013.37 1013.19 1013.13 1013.20 1013.38 1013.69 1014.09 1014.56 1015.07 1015.60 1016.12 1016.60 1017.03 1017.38 1017.67 1017.90 1018.07 1018.19 1018.30 1018.39 1018.48 1018.59 1018.72
1014.87 1015.41 1015.94 1016.43 1016.86 1017.21 1017.48 1017.67 1017.77 1017.79 1017.75 1017.64 1017.47 1017.24 1016.96 1016.63 1016.24 1015.82 1015.36 1014.89 1014.43 1014.02 1013.68 1013.44 1013.33 1013.36 1013.53 1013.83 1014.25 1014.74 1015.28 1015.82 1016.34 1016.80 1017.19 1017.52 1017.77 1017.97 1018.13 1018.26 1018.38 1018.49 1018.62 1018.76
1015.08 1015.64 1016.16 1016.61 1016.97 1017.24 1017.41 1017.50 1017.52 1017.51 1017.47 1017.43 1017.37 1017.30 1017.20 1017.06 1016.85 1016.56 1016.19 1015.75 1015.26 1014.77 1014.30 1013.91 1013.63 1013.51 1013.54 1013.73 1014.06 1014.50 1015.01 1015.54 1016.05 1016.53 1016.94 1017.29 1017.57 1017.81 1018.00 1018.18 1018.35 1018.51 1018.67 1018.84
1015.50 1016.04 1016.52 1016.91 1017.19 1017.35 1017.42 1017.41 1017.36 1017.31 1017.27 1017.27 1017.31 1017.37 1017.43 1017.46 1017.41 1017.26 1016.99 1016.60 1016.12 1015.57 1015.02 1014.52 1014.11 1013.85 1013.75 1013.82 1014.05 1014.40 1014.84 1015.32 1015.80 1016.25 1016.65 1016.99 1017.29 1017.55 1017.79 1018.02 1018.25 1018.47 1018.69 1018.90
1016.04 1016.54 1016.95 1017.26 1017.45 1017.52 1017.50 1017.41 1017.29 1017.20 1017.16 1017.19 1017.30 1017.47 1017.65 1017.82 1017.90 1017.88 1017.71 1017.40 1016.95 1016.41 1015.83 1015.26 1014.77 1014.41 1014.20 1014.15 1014.26 1014.51 1014.84 1015.23 1015.63 1016.01 1016.36 1016.67 1016.96 1017.23 1017.50 1017.77 1018.05 1018.33 1018.61 1018.87
1016.58 1017.00 1017.34 1017.57 1017.69 1017.69 1017.60 1017.46 1017.31 1017.19 1017.16 1017.22 1017.37 1017.61 1017.88 1018.15 1018.35 1018.43 1018.36 1018.14 1017.76 1017.26 1016.70 1016.12 1015.60 1015.17 1014.88 1014.74 1014.74 1014.85 1015.07 1015.33 1015.61 1015.89 1016.15 1016.40 1016.64 1016.89 1017.15 1017.44 1017.76 1018.08 1018.40 1018.70
1016.97 1017.32 1017.59 1017.76 1017.83 1017.79 1017.68 1017.53 1017.38 1017.28 1017.26 1017.34 1017.53 1017.81 1018.15 1018.48 1018.76 1018.93 1018.96 1018.83 1018.54 1018.13 1017.62 1017.09 1016.58 1016.14 1015.80 1015.58 1015.48 1015.48 1015.55 1015.67 1015.81 1015.96 1016.10 1016.25 1016.41 1016.60 1016.83 1017.11 1017.42 1017.76 1018.10 1018.41
1017.13 1017.40 1017.62 1017.76 1017.82 1017.80 1017.72 1017.61 1017.50 1017.44 1017.46 1017.58 1017.80 1018.10 1018.46 1018.84 1019.16 1019.40 1019.52 1019.49 1019.31 1019.00 1018.60 1018.15 1017.69 1017.28 1016.93 1016.66 1016.48 1016.37 1016.31 1016.29 1016.28 1016.27 1016.28 1016.30 1016.36 1016.46 1016.63 1016.85 1017.12 1017.43 1017.75 1018.05
1017.02 1017.24 1017.42 1017.56 1017.65 1017.69 1017.69 1017.67 1017.65 1017.66 1017.74 1017.90 1018.15 1018.47 1018.85 1019.24 1019.60 1019.89 1020.07 1020.14 1020.07 1019.89 1019.61 1019.27 1018.91 1018.55 1018.22 1017.94 1017.70 1017.50 1017.32 1017.16 1017.01 1016.86 1016.73 1016.62 1016.56 1016.55 1016.62 1016.76 1016.95 1017.19 1017.45 1017.70
1016.69 1016.86 1017.04 1017.21 1017.36 1017.49 1017.60 1017.70 1017.80 1017.92 1018.09 1018.30 1018.59 1018.92 1019.30 1019.70 1020.08 1020.40 1020.65 1020.81 1020.85 1020.79 1020.65 1020.43 1020.17 1019.89 1019.60 1019.32 1019.05 1018.78 1018.52 1018.25 1017.97 1017.70 1017.45 1017.22 1017.04 1016.92 1016.88 1016.91 1017.01 1017.15 1017.31 1017.48
1016.21 1016.36 1016.54 1016.76 1017.00 1017.25 1017.49 1017.73 1017.97 1018.21 1018.47 1018.76 1019.08 1019.44 1019.83 1020.23 1020.61 1020.97 1021.27 1021.50 1021.65 1021.71 1021.68 1021.58 1021.43 1021.22 1020.99 1020.72 1020.44 1020.13 1019.80 1019.46 1019.10 1018.74 1018.39 1018.07 1017.80 1017.58 1017.44 1017.36 1017.35 1017.38 1017.43 1017.48
1015.72 1015.86 1016.06 1016.33 1016.66 1017.03 1017.41 1017.79 1018.17 1018.54 1018.90 1019.26 1019.63 1020.02 1020.41 1020.81 1021.21 1021.59 1021.93 1022.22 1022.45 1022.60 1022.68 1022.68 1022.61 1022.48 1022.29 1022.05 1021.76 1021.44 1021.07 1020.69 1020.28 1019.87 1019.48 1019.11 1018.78 1018.50 1018.28 1018.11 1018.00 1017.91 1017.84 1017.78
Thickness
5694 5682 5674 5679 5683 5683 5680 5675 5672 5679 5692 5690 5686 5688 5696 5702 5704 5704 5705 5707 5709 5714 5719 5722 5723 5724 5724 5724 5723 5723 5723 5723 5723 5721 5719 5718 5716 5717 5717 5718 5718 5718 5717 5716
5679 5675 5684 5688 5687 5683 5678 5672 5671 5679 5690 5688 5683 5686 5694 5699 5701 5704 5705 5706 5709 5712 5715 5717 5720 5720 5721 5721 5721 5721 5721 5721 5721 5720 5718 5716 5715 5714 5714 5714 5715 5715 5714 5714
5676 5681 5691 5686 5681 5677 5675 5672 5673 5675 5681 5684 5681 5679 5687 5696 5702 5705 5708 5709 5711 5713 5713 5715 5717 5718 5718 5719 5720 5721 5720 5719 5719 5718 5716 5714 5712 5711 5710 5710 5711 5711 5711 5711
5680 5687 5688 5682 5679 5678 5670 5683 5681 5678 5670 5664 5673 5660 5680 5689 5694 5700 5704 5707 5710 5714 5715 5715 5716 5716 5718 5719 5720 5719 5718 5717 5717 5716 5714 5712 5708 5705 5706 5706 5707 5708 5708 5708
5679 5685 5683 5679 5682 5683 5678 5685 5681 5676 5668 5661 5666 5661 5672 5685 5687 5696 5703 5707 5711 5714 5715 5716 5717 5718 5718 5719 5718 5718 5716 5715 5715 5714 5713 5710 5707 5705 5704 5704 5705 5705 5705 5705
5684 5690 5689 5685 5688 5688 5684 5678 5672 5664 5658 5650 5662 5659 5666 5680 5692 5701 5706 5709 5712 5714 5716 5716 5717 5717 5716 5716 5716 5715 5714 5713 5712 5711 5710 5709 5706 5704 5702 5701 5701 5701 5701 5702
5674 5681 5688 5690 5681 5681 5677 5660 5645 5643 5639 5645 5663 5661 5672 5696 5704 5708 5710 5711 5713 5714 5714 5714 5714 5714 5714 5714 5714 5713 5712 5710 5709 5708 5707 5707 5705 5703 5701 5700 5699 5698 5698 5698
5661 5661 5680 5686 5681 5673 5669 5662 5645 5637 5636 5645 5660 5660 5682 5705 5711 5715 5716 5714 5714 5713 5714 5714 5714 5714 5714 5713 5712 5711 5710 5708 5707 5706 5705 5705 5703 5702 5700 5699 5698 5697 5696 5696
5660 5663 5684 5689 5689 5680 5665 5660 5662 5650 5648 5645 5654 5669 5689 5705 5708 5710 5712 5711 5711 5712 5713 5713 5713 5713 5713 5712 5712 5711 5709 5707 5705 5705 5704 5702 5701 5700 5699 5697 5697 5695 5695 5695
5674 5665 5678 5685 5685 5681 5677 5666 5653 5649 5642 5639 5652 5664 5674 5694 5699 5704 5707 5708 5710 5711 5712 5712 5712 5712 5712 5712 5711 5710 5708 5706 5704 5703 5702 5701 5700 5699 5697 5696 5695 5694 5693 5693
5679 5666 5669 5676 5674 5671 5668 5664 5657 5648 5647 5640 5641 5661 5694 5698 5703 5703 5706 5709 5710 5711 5711 5711 5711 5711 5711 5710 5709 5707 5706 5704 5702 5701 5700 5699 5698 5697 5696 5694 5693 5692 5691 5690
5677 5663 5657 5668 5682 5686 5679 5672 5660 5650 5646 5645 5643 5662 5704 5704 5706 5707 5708 5710 5711 5712 5711 5710 5709 5708 5707 5707 5706 5705 5704 5703 5702 5701 5699 5697 5696 5694 5693 5692 5691 5691 5689 5688
5677 5663 5650 5655 5664 5674 5675 5674 5669 5660 5649 5642 5642 5665 5701 5703 5705 5707 5708 5709 5709 5709 5709 5708 5706 5705 5705 5705 5705 5704 5703 5702 5700 5699 5697 5695 5693 5692 5691 5690 5689 5688 5687 5685
5683 5664 5656 5652 5658 5668 5670 5672 5669 5661 5648 5646 5653 5668 5689 5695 5699 5703 5706 5707 5707 5707 5707 5705 5704 5704 5704 5704 5703 5702 5701 5700 5698 5696 5694 5692 5691 5690 5689 5688 5686 5685 5684 5682
5680 5665 5666 5669 5674 5674 5674 5674 5671 5666 5663 5658 5667 5672 5686 5693 5697 5701 5704 5705 5705 5704 5704 5704 5703 5702 5702 5702 5701 5700 5699 5698 5696 5694 5692 5690 5689 5687 5686 5684 5683 5682 5680 5679
5672 5665 5665 5666 5673 5673 5671 5675 5674 5672 5672 5670 5673 5678 5693 5696 5697 5698 5700 5702 5702 5703 5704 5704 5703 5702 5701 5700 5700 5699 5697 5696 5694 5692 5690 5688 5686 5684 5682 5680 5679 5677 5676 5674
5663 5660 5655 5653 5663 5668 5662 5675 5676 5676 5678 5677 5674 5683 5691 5690 5692 5694 5697 5700 5702 5703 5705 5705 5704 5703 5702 5701 5700 5698 5696 5694 5692 5690 5689 5686 5684 5681 5678 5677 5674 5673 5671 5669
5661 5654 5646 5647 5654 5648 5668 5685 5684 5680 5681 5684 5685 5687 5689 5691 5694 5696 5699 5700 5701 5703 5704 5705 5705 5704 5703 5701 5699 5698 5695 5692 5690 5687 5685 5683 5680 5677 5675 5673 5670 5669 5667 5665
5664 5654 5642 5639 5641 5650 5669 5682 5682 5677 5678 5686 5684 5687 5689 5691 5691 5692 5698 5700 5702 5704 5706 5706 5706 5705 5703 5700 5698 5696 5692 5689 5687 5685 5683 5681 5679 5675 5672 5669 5666 5664 5662 5659
5655 5653 5642 5636 5639 5641 5665 5683 5687 5681 5672 5687 5686 5685 5684 5685 5677 5684 5696 5698 5700 5702 5703 5704 5703 5702 5699 5698 5696 5693 5690 5687 5686 5685 5683 5680 5678 5674 5670 5667 5664 5661 5658 5655
5643 5640 5636 5634 5637 5648 5671 5680 5682 5663 5669 5687 5687 5685 5683 5681 5683 5689 5694 5696 5698 5699 5700 5701 5700 5698 5697 5695 5693 5690 5688 5686 5686 5683 5680 5677 5674 5671 5668 5664 5660 5657 5653 5649
5640 5636 5633 5631 5633 5645 5675 5675 5670 5673 5683 5685 5685 5684 5683 5684 5686 5688 5690 5691 5693 5695 5696 5697 5696 5693 5693 5692 5690 5687 5685 5685 5682 5679 5675 5672 5670 5667 5663 5659 5654 5651 5648 5643
5642 5645 5642 5643 5649 5664 5671 5673 5679 5680 5680 5682 5682 5683 5683 5682 5682 5684 5685 5686 5688 5690 5691 5692 5691 5688 5687 5687 5687 5684 5682 5680 5677 5673 5670 5667 5664 5661 5658 5654 5649 5645 5641 5638
5643 5646 5643 5644 5653 5662 5667 5671 5675 5678 5678 5681 5682 5681 5681 5679 5679 5679 5680 5681 5683 5685 5686 5686 5685 5683 5681 5682 5682 5681 5678 5676 5673 5668 5664 5660 5657 5653 5650 5648 5645 5641 5637 5633
5643 5642 5640 5643 5652 5658 5664 5667 5671 5673 5676 5677 5678 5678 5677 5676 5675 5675 5675 5676 5677 5679 5680 5680 5680 5678 5677 5676 5675 5674 5673 5671 5667 5662 5658 5654 5651 5648 5644 5641 5639 5637 5636 5634
5637 5639 5640 5644 5653 5652 5657 5665 5668 5668 5669 5671 5672 5672 5672 5672 5671 5672 5671 5671 5672 5672 5673 5673 5673 5672 5671 5670 5669 5668 5667 5665 5661 5655 5651 5648 5645 5641 5638 5634 5631 5630 5629 5627